User: anonymous
Location: Slanting_Bridge
(35.6330°N, 80.9830°W)
Time: 03:07:42
(UTC-04:00)
Language:

Hamsat - Orbit

View from above orbital plane
View from above orbital plane
View from above satellite
View from above satellite

Ground track
Ground track

The orbit data is extracted from the following two-line orbital elements,

1 28650U 05017B   14206.47969014  .00000548  00000-0  68865-4 0  8002
2 28650 097.5607 209.5338 0025526 035.5766 324.7145 14.85599469498916
Epoch (UTC): 25 July 2014 11:30:45
Eccentricity: 0.0025526
inclination: 97.5607°
perigee height: 594 km
apogee height: 629 km
right ascension of ascending node: 209.5338°
argument of perigee: 35.5766°
revolutions per day: 14.85599469
mean anomaly at epoch: 324.7145°
orbit number at epoch: 49891

The dashed part of the orbit path shows where the satellite is in the earth's shadow,  

DLR